Voltar ao catálogo

STARLINK-37152

AtivoComunicaçõesSSO
NORAD 68616·PAYLOAD·🇺🇸 United States

Lançado Apr 5, 2026 de Vandenberg Space Force Base

Loading…

Próximas Passagens (próximas 24 horas)

TLE

AtualizadoSource: CelesTrak SupGP

Época: Sep 14, 2026, 21:40 UTC

1 68616C 26073Q   26257.90326389  .00087830  00000+0  27270-2 0  2579
2 68616  97.2851  96.0099 0001783  96.2115 271.2581 15.33388074    16

Acompanhe STARLINK-37152 em tempo real com AllMySat

Download on the App Store